Kahului, HI

12:40 AM HST on May 27, 2017 (GMT -1000)
Kahului

Weather History for PHOG - July, 2014

Change the Weather History Date:

Thursday, July 10, 2014

  Actual Average Record
Temperature  
Mean Temperature 82 °F 79 °F  
Max Temperature 89 °F 87 °F 93 °F (1951)
Min Temperature 74 °F 71 °F 63 °F (1953)
Degree Days  
Heating Degree Days 0 0  
Month to date heating degree days 0 0  
Since 1 June heating degree days 0 0  
Since 1 July heating degree days 0 0  
Cooling Degree Days 17 14  
Month to date cooling degree days 162 140  
Year to date cooling degree days 2077 1787  
Since 1 June cooling degree days 581 528  
Growing Degree Days 30 (Base 50)    
Moisture  
Dew Point 65 °F    
Average Humidity 60    
Maximum Humidity 82    
Minimum Humidity 38    
Precipitation  
Precipitation 0.00 in 0.02 in 0.31 in (1965)
Month to date precipitation 0.06 0.13  
Year to date precipitation 14.31 9.83  
Snow  
Snow 0.00 in - - ()
Month to date snowfall 0.0  
Since 1 June snowfall 0.0  
Since 1 July snowfall 0.0  
Snow Depth 0.00 in    
Sea Level Pressure  
Sea Level Pressure 30.03 in    
Wind  
Wind Speed 17 mph (NE)    
Max Wind Speed 29 mph    
Max Gust Speed 37 mph    
Visibility 10 miles    
Events      
T = Trace of Precipitation, MM = Missing Value Source: NWS Daily Summary

Daily Weather History Graph

Daily Weather History Graph

Search for Another Location

Airport or City:

Trip Planner

Search our weather history database for the weather conditions in past years. The results will help you decide how hot, cold, wet, or windy it might be!

Date:

Astronomy

Jul. 10, 2014 Rise Set
Actual Time 5:51 AM HST 7:10 PM HST
Civil Twilight 5:26 AM HST 7:35 PM HST
Nautical Twilight 4:57 AM HST 8:04 PM HST
Astronomical Twilight 4:27 AM HST 8:34 PM HST
Moon 5:41 PM HST (7/10) 4:06 AM HST (7/10)
Length of Visible Light 14h 08m
Length of Day
13h 19m
Waxing Gibbous, 96% of the Moon is Illuminated
Jul 10
Waxing Gibbous
Jul 12
Full
Jul 18
Last Quarter
Jul 26
New
Aug 3
First Quarter

Hourly Weather History & Observations

Time (HST) Temp. Heat Index Dew Point Humidity Pressure Visibility Wind Dir Wind Speed Gust Speed Precip Events Conditions
12:54 AM 75.0 °F - 66.0 °F 73% 30.06 in 10.0 mi NE 15.0 mph 23.0 mph N/A   Scattered Clouds
1:54 AM 75.0 °F - 66.9 °F 76% 30.04 in 10.0 mi ENE 13.8 mph 23.0 mph N/A   Clear
2:54 AM 73.9 °F - 66.0 °F 76% 30.03 in 10.0 mi NE 9.2 mph - N/A   Clear
3:54 AM 75.0 °F - 66.9 °F 76% 30.03 in 10.0 mi NE 17.3 mph 24.2 mph N/A   Clear
4:54 AM 75.0 °F - 66.9 °F 76% 30.03 in 10.0 mi NE 13.8 mph - N/A   Clear
5:54 AM 75.0 °F - 68.0 °F 79% 30.04 in 10.0 mi NE 13.8 mph - N/A   Partly Cloudy
6:54 AM 77.0 °F - 68.0 °F 74% 30.05 in 10.0 mi NE 11.5 mph - N/A   Partly Cloudy
7:54 AM 80.1 °F 82.1 °F 66.0 °F 62% 30.06 in 10.0 mi NE 13.8 mph 21.9 mph N/A   Scattered Clouds
8:54 AM 82.9 °F 84.4 °F 64.0 °F 53% 30.06 in 10.0 mi ENE 19.6 mph 27.6 mph N/A   Scattered Clouds
9:54 AM 84.0 °F 85.4 °F 64.0 °F 51% 30.06 in 10.0 mi ENE 24.2 mph 33.4 mph N/A   Scattered Clouds
10:54 AM 84.9 °F 85.0 °F 61.0 °F 44% 30.04 in 10.0 mi ENE 21.9 mph 35.7 mph N/A   Scattered Clouds
11:54 AM 87.1 °F 87.5 °F 62.1 °F 43% 30.02 in 10.0 mi ENE 23.0 mph 32.2 mph N/A   Scattered Clouds
12:54 PM 89.1 °F 89.0 °F 61.0 °F 39% 30.01 in 10.0 mi ENE 23.0 mph 33.4 mph N/A   Scattered Clouds
1:54 PM 87.1 °F 89.2 °F 66.0 °F 49% 29.99 in 10.0 mi ENE 21.9 mph 34.5 mph N/A   Scattered Clouds
2:54 PM 86.0 °F 87.3 °F 64.0 °F 48% 29.98 in 10.0 mi ENE 18.4 mph 32.2 mph N/A   Scattered Clouds
3:54 PM 86.0 °F 87.6 °F 64.9 °F 49% 29.96 in 10.0 mi ENE 23.0 mph 34.5 mph N/A   Scattered Clouds
4:54 PM 84.0 °F 85.8 °F 64.9 °F 53% 29.96 in 10.0 mi NE 26.5 mph 34.5 mph N/A   Scattered Clouds
5:54 PM 82.0 °F 83.1 °F 63.0 °F 52% 29.97 in 10.0 mi ENE 20.7 mph 33.4 mph N/A   Partly Cloudy
6:54 PM 79.0 °F - 66.0 °F 64% 30.01 in 10.0 mi ENE 19.6 mph 28.8 mph N/A   Partly Cloudy
7:54 PM 77.0 °F - 66.0 °F 69% 30.03 in 10.0 mi NE 13.8 mph - N/A   Scattered Clouds
8:54 PM 77.0 °F - 66.9 °F 71% 30.05 in 10.0 mi NE 16.1 mph - 0.01 in   Partly Cloudy
9:54 PM 75.9 °F - 66.9 °F 74% 30.06 in 10.0 mi NE 10.4 mph - 0.00 in   Scattered Clouds
10:54 PM 75.9 °F - 66.9 °F 74% 30.06 in 10.0 mi NE 12.7 mph - N/A   Partly Cloudy
11:54 PM 75.9 °F - 66.0 °F 71% 30.04 in 10.0 mi NE 12.7 mph 23.0 mph 0.01 in   Partly Cloudy